www.pogodaiklimat.ru

ПОГОДА в Ланай-Сити, HI

  • Прогноз погоды в Ланай-Сити
  • Монитор погоды в Ланай-Сити
  • Климат в Ланай-Сити

АРХИВ ПОГОДЫ в Ланай-Сити

Время (UTC), дата Ветер
(напр.,м/с)
 
Видим.   Явления Облачность Т
(С)
Тd
(С)
f
(%)
Тe
(С)
Тes
(С)
Комфортность

P
(гПа)

Po
(гПа)
Тmin
(С)
Tmax
(С)
R
(мм)
SD
(см)
13:56 24.05 Ю  16 км    10/10 270 м  +21.7  +21.7  100  +28  +28  душно  1018.0  972.8         
14:11 24.05 Ю  16 км    10/10 210 м  +22.0  +22.0  100  +29  +29  очень
душно 
  972.8         
14:56 24.05 СЗ  16 км    10/10 150 м  +21.0            1018.2  972.8         
15:37 24.05 С  16 км    10/10 150 м  +22.0              973.2         
15:51 24.05 СВ  13 км    10/10 210 м  +22.0              973.5         
15:56 24.05 СВ  6 км  слабый дождь  10/10 210 м  +22.0            1019.0  973.5         
16:19 24.05 СВ  16 км    10/10 210 м  +22.0              973.8         
16:54 24.05   16 км    8/8 450 м  +22.0  +22.0  100  +29  +29  очень
душно 
  973.8         
16:56 24.05   16 км    8/8 450 м  +22.8  +22.8  100  +31  +32  очень
душно 
1019.1  973.8  +20.6  +22.8     
17:53 24.05 ЮВ  16 км    10/10 270 м  +22.0  +22.0  100  +29  +29  очень
душно 
  973.8         
17:56 24.05 ЮВ  16 км    10/10 270 м  +22.8  +22.2  96  +31  +31  очень
душно 
1019.2  973.8         
18:27 24.05 ЮВ  6
{10} 
16 км    10/10 390 м  +24.0  +22.0  89  +31  +31  очень
душно 
  973.5         
18:56 24.05 ЮВ  16 км    10/10 450 м  +23.3  +22.2  94  +32  +32  очень
душно 
1019.0  973.5         
19:56 24.05 ЮВ  16 км    10/10 570 м  +25.0  +21.1  79  +32  +32  очень
душно 
1018.9  973.5         
20:06 24.05 ЮВ  16 км    10/10 540 м  +26.0  +21.0  74  +33  +33  очень
душно 
  973.5         
20:56 24.05 СВ  16 км    8/8 630 м  +26.7  +21.1  71  +34  +35  очень
душно 
1018.4  973.2         
21:06 24.05 С  16 км    8/8 630 м  +26.0  +21.0  74  +33  +34  очень
душно 
  973.2         
21:56 24.05 С  7
{10} 
16 км    ясно  +27.2  +21.1  69  +34  +38  очень
душно 
1017.8  972.5         
22:56 24.05 СВ  16 км    2/2 720 м  +26.7  +21.1  71  +34  +34  очень
душно 
1017.2  971.9  +22.2  +27.2     
23:56 24.05 СВ  16 км    2/2 780 м  +26.7  +21.1  71  +34  +38  очень
душно 
1016.9  971.5         
00:32 25.05 С  16 км    8/8 690 м  +26.0  +21.0  74  +33  +34  очень
душно 
  971.5         
00:56 25.05 СВ  16 км    8/8 900 м  +26.1  +20.6  72  +33  +33  очень
душно 
1016.7  971.5         
01:56 25.05 С  16 км    2/2 900 м  +25.6  +21.7  79  +33  +34  очень
душно 
1016.6  971.5         
02:56 25.05 С  16 км    ясно  +24.4  +21.7  85  +31  +32  очень
душно 
1016.8  971.5         
03:56 25.05 В  16 км    ясно  +22.8  +21.7  94  +31  +31  очень
душно 
1017.3  971.9         
04:56 25.05 ЮВ  16 км    2/2 750 м  +22.8  +21.7  94  +31  +31  очень
душно 
1018.1  972.8  +22.2  +27.8     
05:09 25.05 ЮВ  16 км    8/8 750 м  +23.0  +22.0  94  +31  +31  очень
душно 
  972.8         
05:38 25.05 ЮВ  16 км    5/5 780 м  +23.0  +21.0  89  +31  +31  очень
душно 
  973.2         
05:56 25.05 ЮВ  16 км    8/8 990 м  +22.8  +20.6  87  +30  +30  очень
душно 
           
06:56 25.05 СВ  16 км    10/10 1050 м  +22.2  +21.1  93  +29  +29  очень
душно 
1018.8  973.5         
07:56 25.05 В  16 км    5/5 810 м  +20.6  +20.6  100  +26  +26  душно  1018.9  973.5         
08:56 25.05 ЮВ  16 км    2/2 1020 м  +21.1  +21.1  100  +26  +26  душно  1018.5  973.2         
09:56 25.05 СВ  16 км    ясно  +20.6  +20.6  100  +25  +25  комфорт  1017.6  972.5         
10:56 25.05 В  16 км    ясно  +20.0  +20.0  100  +24  +24  комфорт  1017.1  971.9  +20.0  +23.3     
11:56 25.05 В  16 км    5/5 660 м  +18.9  +18.9  100  +21  +21  комфорт             
12:16 25.05   16 км    2/2 30 м  +19.0  +19.0  100  +21  +21  комфорт    971.2         
12:56 25.05     16 км    н/о  +19.4  +19.4  100  +22  +22  комфорт             
13:56 25.05 С  16 км    н/о  +20.6  +20.6  100  +26  +26  душно  1016.7  971.5         
14:21 25.05 СВ  16 км    8/8 600 м  +20.0  +20.0  100  +24  +24  комфорт    971.5         
14:28 25.05 СВ  16 км    5/5 600 м  +20.0  +20.0  100  +24  +24  комфорт    971.5         
14:56 25.05 СВ  16 км    ясно  +19.4  +19.4  100  +22  +22  комфорт  1017.0  971.9         
15:56 25.05 В  16 км    ясно  +21.1  +21.1  100  +26  +26  душно  1017.9  972.5         
16:56 25.05 нст  16 км    ясно  +23.3  +20.6  85  +31  +32  очень
душно 
1018.4  973.2  +18.3  +23.3     
17:52 25.05 Ю  16 км    8/8 570 м  +24.0  +21.0  83  +30  +31  очень
душно 
  973.2         
17:56 25.05 Ю  16 км    8/8 570 м  +24.4  +21.1  82  +31  +32  очень
душно 
1018.6  973.2         
18:56 25.05 нст  16 км    10/10 690 м  +24.4  +20.6  79  +30  +30  очень
душно 
           
19:56 25.05 Ю  16 км    10/10 630 м  +24.4  +21.1  82  +31  +31  очень
душно 
1018.6  973.2         
20:56 25.05     16 км    10/10 600 м  +23.9  +20.6  82  +30  +30  очень
душно 
1018.6  973.2         

 

Местоположение метеостанции Lanai Airport: широта 20.7856 долгота -156.9514 высота над уровнем моря 399 м.

В архиве по умолчанию представлена погода в Ланай-Сити за последние 1-2 суток. Обновление информации о фактической погоде в базе происходит ежечасно! Архивные данные за месяц целиком и за предыдущие месяцы Вы можете получить, выбрав интересующий диапазон дат из раскрывающегося списка и нажав кнопку "Ввод!".

Внимание! Архив погоды МЕТАР в базе сайта хранится не более 60 дней. Нет смысла пытаться выбрать более раннюю дату.

Внимание! Время в таблицах - всемирное. Для получения местного времени необходимо прибавить поправку, которая в Ланай-Сити равна -10 ч.

Ветер - указаны скорость ветра в м/с и направление, откуда дует ветер: С - северный, СВ - северо-восточный, В - восточный, ЮВ - юго-восточный, Ю - южный, ЮЗ - юго-западный, З - западный, СЗ - северо-западный.
Видимость - горизонтальная дальность видимости в метрах или километрах. При видимости от 1 до 10 км при отсутствии осадков обычно наблюдается дымка, при ухудшении видимости до 1 км и менее - туман. В сухую погоду видимость может ухудшаться дымом, пылью или мглою.
Атмосферные явления - указаны явления, наблюдавшиеся в указанный момент времени.
Облачность - указаны через наклонную черту верхняя и нижняя облачность в баллах и высота нижней границы облаков в метрах. Внимание: облачность, как и прочие метеорологические величины в США измеряются автоматическими метеостанциями. Указанные значения в баллах носят условный характер и показывают процент времени, в течение которого, в среднем, лазерный луч высотомера отражался от облаков обратно.
T - Температура воздуха - температура, измеренная на высоте 2 м над землей.
Td - Температура точки росы - температура, при понижении до которой содержащийся в воздухе водяной пар достигнет насыщения.
f - Относительная влажность воздуха - влажноcть воздуха, измеренная на высоте 2 м над землей.
Te - Эффективная температура - температура, которую ощущает одетый по сезону человек в тени. Характеристика душности погоды. При расчете учитывается влияние влажности воздуха и скорости ветра на теплоощущения человека.
Tes - Эффективная температура на солнце - температура, которую ощущает человек, с поправкой на солнечный нагрев. Характеристика знойности погоды. Зависит от высоты солнца над горизонтом, облачности и скорости ветра. Ночью, в пасмурную погоду, а также при ветре 12 м/с и более поправка равна нулю.
P - Атмосферное давление - приведенное к уровню моря атмосферное давление.
Po - Атмосферное давление - измеренное на уровне метеостанции атмосферное давление.
Tmin - Минимальная температура - минимум температуры воздуха на высоте 2 м над землей.
Tmax - Максимальная температура - максимум температуры воздуха на высоте 2 м над землей.
R - Количество осадков - Количество выпавших осадков за 3 или 6 часов, мм.
SD - Снежный покров - Высота снежного покрова, см.